Weather History for KRQB - January, 2013

Change the Weather History Date:

Thursday, January 3, 2013

  Actual Average Record
Temperature  
Mean Temperature 24 °F -  
Max Temperature 28 °F 29 °F 53 °F (2004)
Min Temperature 21 °F 14 °F -11 °F (1981)
Degree Days  
Heating Degree Days 40    
Moisture  
Dew Point 19 °F    
Average Humidity 76    
Maximum Humidity 82    
Minimum Humidity 66    
Precipitation  
Precipitation 0.00 in - - ()
Sea Level Pressure  
Sea Level Pressure 30.03 in    
Wind  
Wind Speed 7 mph (WSW)    
Max Wind Speed 17 mph    
Max Gust Speed 22 mph    
Visibility 8 miles    
Events Snow    
Averages and records for this station are not official NWS values.
T = Trace of Precipitation, MM = Missing Value Source: NWS Daily Summary

Daily Weather History Graph

Daily Weather History Graph

Search for Another Location

Airport or City:

Trip Planner

Search our weather history database for the weather conditions in past years. The results will help you decide how hot, cold, wet, or windy it might be!

Date:

Astronomy

Jan. 03, 2013 Rise Set
Actual Time 8:15 AM EST 5:17 PM EST
Civil Twilight 7:43 AM EST 5:50 PM EST
Nautical Twilight 7:07 AM EST 6:26 PM EST
Astronomical Twilight 6:32 AM EST 7:01 PM EST
Moon No Moon Rise 11:14 AM EST (1/3)
Length of Visible Light 10h 07m
Length of Day
9h 01m
Waning Gibbous, 65% of the Moon is Illuminated
Jan 3
Waning Gibbous
Jan 4
Last Quarter
Jan 11
New
Jan 18
First Quarter
Jan 26
Full

Hourly Weather History & Observations

Time (EST) Temp. Windchill Dew Point Humidity Pressure Visibility Wind Dir Wind Speed Gust Speed Precip Events Conditions
12:14 AM 25.0 °F 17.1 °F 15.8 °F 68% 30.04 in 10.0 mi South 6.9 mph - N/A   Overcast
12:34 AM 24.8 °F 17.9 °F 15.8 °F 69% 30.03 in 10.0 mi South 5.8 mph - N/A   Overcast
12:54 AM 24.8 °F 16.9 °F 15.4 °F 68% 30.03 in 10.0 mi South 6.9 mph - N/A   Overcast
1:14 AM 24.6 °F 17.7 °F 15.1 °F 67% 30.02 in 10.0 mi South 5.8 mph - N/A   Overcast
1:34 AM 24.4 °F 17.5 °F 14.9 °F 67% 30.02 in 10.0 mi South 5.8 mph - N/A   Overcast
1:55 AM 23.9 °F 15.0 °F 14.0 °F 66% 30.02 in 10.0 mi South 8.1 mph - N/A   Overcast
2:14 AM 23.7 °F 16.6 °F 14.9 °F 69% 30.02 in 7.0 mi South 5.8 mph - N/A Snow Light Snow
2:34 AM 23.4 °F 15.2 °F 14.9 °F 70% 30.01 in 10.0 mi South 6.9 mph - N/A Snow Light Snow
2:55 AM 23.0 °F 14.7 °F 14.9 °F 71% 30.02 in 7.0 mi South 6.9 mph - N/A Snow Light Snow
3:14 AM 22.5 °F 14.1 °F 14.9 °F 73% 30.01 in 7.0 mi South 6.9 mph - N/A Snow Light Snow
3:34 AM 22.1 °F 13.7 °F 15.1 °F 74% 30.01 in 10.0 mi South 6.9 mph - N/A Snow Light Snow
3:55 AM 22.1 °F 14.7 °F 14.9 °F 74% 30.00 in 7.0 mi South 5.8 mph - N/A Snow Light Snow
4:14 AM 22.1 °F 15.9 °F 15.4 °F 76% 30.00 in 5.0 mi South 4.6 mph - N/A Snow Light Snow
4:34 AM 21.9 °F 14.5 °F 15.8 °F 77% 29.99 in 5.0 mi SSE 5.8 mph - N/A Snow Light Snow
4:55 AM 21.9 °F 15.7 °F 16.0 °F 78% 29.98 in 7.0 mi South 4.6 mph - N/A Snow Light Snow
5:14 AM 22.1 °F 15.9 °F 16.3 °F 79% 29.98 in 7.0 mi South 4.6 mph - N/A Snow Light Snow
5:34 AM 22.1 °F 14.7 °F 16.7 °F 80% 29.97 in 5.0 mi South 5.8 mph - N/A Snow Light Snow
5:55 AM 22.5 °F 15.1 °F 16.9 °F 79% 29.97 in 10.0 mi South 5.8 mph - N/A Snow Light Snow
6:14 AM 22.5 °F 15.1 °F 16.9 °F 79% 29.96 in 10.0 mi South 5.8 mph - N/A   Overcast
6:34 AM 22.6 °F 16.5 °F 17.1 °F 79% 29.97 in 10.0 mi SSW 4.6 mph - N/A   Overcast
6:54 AM 22.8 °F 16.7 °F 17.4 °F 80% 29.97 in 10.0 mi SSW 4.6 mph - N/A   Overcast
7:14 AM 23.0 °F 18.4 °F 17.6 °F 80% 29.98 in 10.0 mi SSW 3.5 mph - N/A   Overcast
7:34 AM 23.2 °F 18.7 °F 18.0 °F 80% 29.98 in 10.0 mi SSW 3.5 mph - N/A   Overcast
7:54 AM 23.5 °F 19.1 °F 18.5 °F 81% 29.98 in 10.0 mi SSW 3.5 mph - N/A   Overcast
8:34 AM 24.4 °F - 19.6 °F 82% 29.99 in 7.0 mi Calm Calm - N/A   Overcast
8:54 AM 24.6 °F 20.3 °F 19.8 °F 82% 29.99 in 7.0 mi West 3.5 mph - N/A   Overcast
9:14 AM 24.8 °F 20.5 °F 20.1 °F 82% 30.00 in 5.0 mi WSW 3.5 mph - N/A Snow Light Snow
9:34 AM 25.2 °F 20.9 °F 20.1 °F 81% 30.00 in 5.0 mi West 3.5 mph - N/A   Haze
9:54 AM 25.5 °F 19.9 °F 20.3 °F 81% 30.01 in 5.0 mi West 4.6 mph - N/A   Haze
10:14 AM 25.5 °F 19.9 °F 20.3 °F 81% 30.00 in 5.0 mi WSW 4.6 mph - N/A Snow Light Snow
10:34 AM 25.9 °F 19.2 °F 20.5 °F 80% 30.01 in 5.0 mi West 5.8 mph - N/A   Haze
10:54 AM 26.4 °F 19.8 °F 20.8 °F 79% 30.01 in 5.0 mi West 5.8 mph - N/A Snow Light Snow
11:14 AM 26.6 °F 21.2 °F 21.0 °F 79% 30.01 in 4.0 mi WSW 4.6 mph - N/A Snow Light Snow
11:34 AM 27.0 °F 20.5 °F 21.2 °F 79% 30.01 in 4.0 mi West 5.8 mph - N/A Snow Light Snow
11:54 AM 27.1 °F 18.2 °F 21.2 °F 78% 30.01 in 5.0 mi WNW 9.2 mph - N/A Snow Light Snow
12:14 PM 27.1 °F 16.4 °F 21.0 °F 78% 30.01 in 5.0 mi WNW 12.7 mph 17.3 mph N/A   Haze
12:34 PM 27.3 °F 16.6 °F 20.8 °F 77% 30.00 in 5.0 mi WNW 12.7 mph 20.7 mph N/A Snow Light Snow
12:54 PM 27.3 °F 16.6 °F 21.0 °F 77% 30.00 in 5.0 mi WNW 12.7 mph 18.4 mph N/A Snow Light Snow
1:14 PM 27.1 °F 15.9 °F 21.0 °F 78% 30.00 in 4.0 mi WNW 13.8 mph - N/A Snow Light Snow
1:35 PM 27.3 °F 17.1 °F 20.8 °F 77% 30.00 in 4.0 mi WNW 11.5 mph 17.3 mph N/A Snow Light Snow
1:54 PM 27.5 °F 15.9 °F 20.5 °F 75% 29.99 in 5.0 mi WNW 15.0 mph 19.6 mph N/A Snow Light Snow
2:14 PM 27.5 °F 15.0 °F 20.7 °F 75% 30.00 in 5.0 mi WNW 17.3 mph 20.7 mph N/A   Haze
2:34 PM 27.3 °F 15.2 °F 20.7 °F 76% 30.00 in 5.0 mi WNW 16.1 mph 21.9 mph N/A   Haze
2:54 PM 27.5 °F 16.3 °F 20.5 °F 75% 30.01 in 7.0 mi WNW 13.8 mph - N/A   Overcast
3:15 PM 27.5 °F 18.0 °F 20.7 °F 75% 30.02 in 7.0 mi WNW 10.4 mph - N/A   Overcast
3:34 PM 27.9 °F 19.8 °F 20.8 °F 75% 30.02 in 7.0 mi West 8.1 mph - N/A   Overcast
3:54 PM 28.0 °F 19.3 °F 20.8 °F 74% 30.03 in 7.0 mi West 9.2 mph - N/A   Overcast
4:15 PM 28.0 °F 20.0 °F 21.0 °F 75% 30.04 in 7.0 mi West 8.1 mph - N/A   Overcast
4:34 PM 28.0 °F 20.8 °F 21.0 °F 75% 30.04 in 7.0 mi West 6.9 mph - N/A   Overcast
4:54 PM 28.0 °F 21.7 °F 21.2 °F 76% 30.05 in 7.0 mi West 5.8 mph - N/A   Overcast
5:14 PM 28.0 °F 20.8 °F 21.4 °F 76% 30.06 in 7.0 mi West 6.9 mph - N/A   Overcast
5:34 PM 28.2 °F 21.0 °F 21.6 °F 76% 30.07 in 7.0 mi West 6.9 mph - N/A   Overcast
5:54 PM 28.2 °F 23.1 °F 21.6 °F 76% 30.08 in 7.0 mi WSW 4.6 mph - N/A   Overcast
6:14 PM 28.2 °F 21.0 °F 21.7 °F 77% 30.08 in 7.0 mi West 6.9 mph - N/A   Overcast
6:34 PM 28.2 °F 22.0 °F 21.7 °F 77% 30.08 in 7.0 mi West 5.8 mph - N/A   Overcast
6:55 PM 28.4 °F 23.3 °F 21.2 °F 74% 30.09 in 10.0 mi West 4.6 mph - N/A   Overcast
7:14 PM 28.4 °F 23.3 °F 21.7 °F 76% 30.09 in 10.0 mi West 4.6 mph - N/A   Overcast
7:34 PM 28.4 °F 24.6 °F 21.2 °F 74% 30.09 in 10.0 mi WSW 3.5 mph - N/A   Overcast
7:55 PM 28.4 °F 23.3 °F 21.6 °F 76% 30.09 in 10.0 mi WSW 4.6 mph - N/A   Overcast
8:14 PM 28.4 °F 23.3 °F 21.6 °F 76% 30.09 in 10.0 mi WSW 4.6 mph - N/A   Overcast
8:34 PM 28.4 °F 20.4 °F 21.7 °F 76% 30.09 in 10.0 mi West 8.1 mph - N/A   Overcast
8:54 PM 28.4 °F 22.2 °F 21.7 °F 76% 30.09 in 10.0 mi WSW 5.8 mph - N/A   Overcast
9:14 PM 28.9 °F 19.8 °F 20.3 °F 70% 30.08 in 10.0 mi West 10.4 mph - N/A   Overcast
9:34 PM 28.8 °F 19.0 °F 20.8 °F 72% 30.08 in 10.0 mi WSW 11.5 mph 20.7 mph N/A   Overcast
9:54 PM 28.4 °F 18.5 °F 20.3 °F 72% 30.08 in 10.0 mi West 11.5 mph 21.9 mph N/A   Overcast
10:14 PM 28.2 °F 17.7 °F 20.7 °F 73% 30.07 in 10.0 mi West 12.7 mph 20.7 mph N/A   Overcast
10:34 PM 28.2 °F 18.3 °F 20.7 °F 73% 30.07 in 10.0 mi West 11.5 mph 19.6 mph N/A   Overcast
10:54 PM 28.4 °F 19.7 °F 20.3 °F 72% 30.07 in 10.0 mi West 9.2 mph 16.1 mph N/A   Overcast
11:14 PM 28.4 °F 18.5 °F 20.8 °F 73% 30.06 in 10.0 mi West 11.5 mph 16.1 mph N/A   Overcast
11:34 PM 28.4 °F 18.5 °F 20.7 °F 73% 30.06 in 10.0 mi West 11.5 mph 17.3 mph N/A   Overcast
11:54 PM 28.4 °F 16.6 °F 20.7 °F 73% 30.04 in 10.0 mi West 16.1 mph 21.9 mph N/A   Overcast